Year,Month,Day,Hour,Minute,Value (Times are PST for temperature in C)
2012,04,17,00,00,6.80
2012,04,17,00,01,6.80
2012,04,17,00,02,6.80
2012,04,17,00,03,6.80
2012,04,17,00,04,6.80
2012,04,17,00,05,6.80
2012,04,17,00,06,6.80
2012,04,17,00,07,6.80
2012,04,17,00,08,6.70
2012,04,17,00,09,6.70
2012,04,17,00,10,6.70
2012,04,17,00,11,6.70
2012,04,17,00,12,6.70
2012,04,17,00,13,6.70
2012,04,17,00,14,6.70
2012,04,17,00,15,6.70
2012,04,17,00,16,6.70
2012,04,17,00,17,6.70
2012,04,17,00,18,6.70
2012,04,17,00,19,6.60
2012,04,17,00,20,6.60
2012,04,17,00,21,6.60
2012,04,17,00,22,6.60
2012,04,17,00,23,6.60
2012,04,17,00,24,6.60
2012,04,17,00,25,6.60
2012,04,17,00,26,6.60
2012,04,17,00,27,6.60
2012,04,17,00,28,6.60
2012,04,17,00,29,6.60
2012,04,17,00,30,6.60
2012,04,17,00,31,6.60
2012,04,17,00,32,6.60
2012,04,17,00,33,6.60
2012,04,17,00,34,6.60
2012,04,17,00,35,6.60
2012,04,17,00,36,6.60
2012,04,17,00,37,6.60
2012,04,17,00,38,6.60
2012,04,17,00,39,6.60
2012,04,17,00,40,6.60
2012,04,17,00,41,6.60
2012,04,17,00,42,6.60
2012,04,17,00,43,6.60
2012,04,17,00,44,6.50
2012,04,17,00,45,6.40
2012,04,17,00,46,6.50
2012,04,17,00,47,6.60
2012,04,17,00,48,6.60
2012,04,17,00,49,6.60
2012,04,17,00,50,6.60
2012,04,17,00,51,6.60
2012,04,17,00,52,6.60
2012,04,17,00,53,6.60
2012,04,17,00,54,6.60
2012,04,17,00,55,6.60
2012,04,17,00,56,6.60
2012,04,17,00,57,6.60
2012,04,17,00,58,6.60
2012,04,17,00,59,6.60
2012,04,17,01,00,6.60
2012,04,17,01,01,6.60
2012,04,17,01,02,6.60
2012,04,17,01,03,6.60
2012,04,17,01,04,6.60
2012,04,17,01,05,6.60
2012,04,17,01,06,6.60
2012,04,17,01,07,6.60
2012,04,17,01,08,6.60
2012,04,17,01,09,6.60
2012,04,17,01,10,6.60
2012,04,17,01,11,6.60
2012,04,17,01,12,6.60
2012,04,17,01,13,6.60
2012,04,17,01,14,6.60
2012,04,17,01,15,6.60
2012,04,17,01,16,6.60
2012,04,17,01,17,6.60
2012,04,17,01,18,6.60
2012,04,17,01,19,6.60
2012,04,17,01,20,6.60
2012,04,17,01,21,6.60
2012,04,17,01,22,6.60
2012,04,17,01,23,6.60
2012,04,17,01,24,6.60
2012,04,17,01,25,6.60
2012,04,17,01,26,6.60
2012,04,17,01,27,6.60
2012,04,17,01,28,6.60
2012,04,17,01,29,6.60
2012,04,17,01,30,6.60
2012,04,17,01,31,6.60
2012,04,17,01,32,6.60
2012,04,17,01,33,6.60
2012,04,17,01,34,6.60
2012,04,17,01,35,6.60
2012,04,17,01,36,6.60
2012,04,17,01,37,6.60
2012,04,17,01,38,6.60
2012,04,17,01,39,6.60
2012,04,17,01,40,6.60
2012,04,17,01,41,6.60
2012,04,17,01,42,6.60
2012,04,17,01,43,6.60
2012,04,17,01,44,6.60
2012,04,17,01,45,6.60
2012,04,17,01,46,6.60
2012,04,17,01,47,6.60
2012,04,17,01,48,6.60
2012,04,17,01,49,6.60
2012,04,17,01,50,6.60
2012,04,17,01,51,6.60
2012,04,17,01,52,6.60
2012,04,17,01,53,6.60
2012,04,17,01,54,6.60
2012,04,17,01,55,6.60
2012,04,17,01,56,6.60
2012,04,17,01,57,6.60
2012,04,17,01,58,6.60
2012,04,17,01,59,6.60
2012,04,17,02,00,6.60
2012,04,17,02,01,6.60
2012,04,17,02,02,6.60
2012,04,17,02,03,6.60
2012,04,17,02,04,6.60
2012,04,17,02,05,6.60
2012,04,17,02,06,6.60
2012,04,17,02,07,6.60
2012,04,17,02,08,6.50
2012,04,17,02,09,6.40
2012,04,17,02,10,6.40
2012,04,17,02,11,6.40
2012,04,17,02,12,6.40
2012,04,17,02,13,6.40
2012,04,17,02,14,6.40
2012,04,17,02,15,6.40
2012,04,17,02,16,6.40
2012,04,17,02,17,6.40
2012,04,17,02,18,6.40
2012,04,17,02,19,6.40
2012,04,17,02,20,6.40
2012,04,17,02,21,6.40
2012,04,17,02,22,6.40
2012,04,17,02,23,6.40
2012,04,17,02,24,6.40
2012,04,17,02,25,6.40
2012,04,17,02,26,6.40
2012,04,17,02,27,6.40
2012,04,17,02,28,6.40
2012,04,17,02,29,6.40
2012,04,17,02,30,6.40
2012,04,17,02,31,6.40
2012,04,17,02,32,6.40
2012,04,17,02,33,6.40
2012,04,17,02,34,6.40
2012,04,17,02,35,6.40
2012,04,17,02,36,6.40
2012,04,17,02,37,6.40
2012,04,17,02,38,6.40
2012,04,17,02,39,6.60
2012,04,17,02,40,6.60
2012,04,17,02,41,6.60
2012,04,17,02,42,6.60
2012,04,17,02,43,6.60
2012,04,17,02,44,6.60
2012,04,17,02,45,6.60
2012,04,17,02,46,6.60
2012,04,17,02,47,6.60
2012,04,17,02,48,6.60
2012,04,17,02,49,6.60
2012,04,17,02,50,6.60
2012,04,17,02,51,6.60
2012,04,17,02,52,6.60
2012,04,17,02,53,6.60
2012,04,17,02,54,6.60
2012,04,17,02,55,6.60
2012,04,17,02,56,6.60
2012,04,17,02,57,6.60
2012,04,17,02,58,6.60
2012,04,17,02,59,6.60
2012,04,17,03,00,6.60
2012,04,17,03,01,6.60
2012,04,17,03,02,6.60
2012,04,17,03,03,6.60
2012,04,17,03,04,6.60
2012,04,17,03,05,6.60
2012,04,17,03,06,6.60
2012,04,17,03,07,6.60
2012,04,17,03,08,6.60
2012,04,17,03,09,6.60
2012,04,17,03,10,6.60
2012,04,17,03,11,6.60
2012,04,17,03,12,6.60
2012,04,17,03,13,6.60
2012,04,17,03,14,6.60
2012,04,17,03,15,6.60
2012,04,17,03,16,6.60
2012,04,17,03,17,6.60
2012,04,17,03,18,6.60
2012,04,17,03,19,6.60
2012,04,17,03,20,6.60
2012,04,17,03,21,6.60
2012,04,17,03,22,6.60
2012,04,17,03,23,6.60
2012,04,17,03,24,6.40
2012,04,17,03,25,6.40
2012,04,17,03,26,6.40
2012,04,17,03,27,6.40
2012,04,17,03,28,6.40
2012,04,17,03,29,6.40
2012,04,17,03,30,6.40
2012,04,17,03,31,6.40
2012,04,17,03,32,6.40
2012,04,17,03,33,6.40
2012,04,17,03,34,6.40
2012,04,17,03,35,6.40
2012,04,17,03,36,6.30
2012,04,17,03,37,6.30
2012,04,17,03,38,6.30
2012,04,17,03,39,6.30
2012,04,17,03,40,6.30
2012,04,17,03,41,6.20
2012,04,17,03,42,6.20
2012,04,17,03,43,6.20
2012,04,17,03,44,6.20
2012,04,17,03,45,6.20
2012,04,17,03,46,6.20
2012,04,17,03,47,6.20
2012,04,17,03,48,6.20
2012,04,17,03,49,6.20
2012,04,17,03,50,6.20
2012,04,17,03,51,6.20
2012,04,17,03,52,6.20
2012,04,17,03,53,6.20
2012,04,17,03,54,6.20
2012,04,17,03,55,6.20
2012,04,17,03,56,6.20
2012,04,17,03,57,6.10
2012,04,17,03,58,6.10
2012,04,17,03,59,6.10
2012,04,17,04,00,6.00
2012,04,17,04,01,6.00
2012,04,17,04,02,6.00
2012,04,17,04,03,6.00
2012,04,17,04,04,6.00
2012,04,17,04,05,6.00
2012,04,17,04,06,5.90
2012,04,17,04,07,5.90
2012,04,17,04,08,5.90
2012,04,17,04,09,5.80
2012,04,17,04,10,5.80
2012,04,17,04,11,5.80
2012,04,17,04,12,5.80
2012,04,17,04,13,5.80
2012,04,17,04,14,5.70
2012,04,17,04,15,5.70
2012,04,17,04,16,5.70
2012,04,17,04,17,5.70
2012,04,17,04,18,5.70
2012,04,17,04,19,5.70
2012,04,17,04,20,5.70
2012,04,17,04,21,5.70
2012,04,17,04,22,5.70
2012,04,17,04,23,5.70
2012,04,17,04,24,5.70
2012,04,17,04,25,5.70
2012,04,17,04,26,5.70
2012,04,17,04,27,5.70
2012,04,17,04,28,5.80
2012,04,17,04,29,5.80
2012,04,17,04,30,5.80
2012,04,17,04,31,5.80
2012,04,17,04,32,5.70
2012,04,17,04,33,5.70
2012,04,17,04,34,5.70
2012,04,17,04,35,5.70
2012,04,17,04,36,5.70
2012,04,17,04,37,5.70
2012,04,17,04,38,5.60
2012,04,17,04,39,5.60
2012,04,17,04,40,5.70
2012,04,17,04,41,5.60
2012,04,17,04,42,5.60
2012,04,17,04,43,5.60
2012,04,17,04,44,5.60
2012,04,17,04,45,5.70
2012,04,17,04,46,5.70
2012,04,17,04,47,5.70
2012,04,17,04,48,5.70
2012,04,17,04,49,5.70
2012,04,17,04,50,5.70
2012,04,17,04,51,5.70
2012,04,17,04,52,5.80
2012,04,17,04,53,5.80
2012,04,17,04,54,5.90
2012,04,17,04,55,6.00
2012,04,17,04,56,6.10
2012,04,17,04,57,6.20
2012,04,17,04,58,6.20
2012,04,17,04,59,6.20
2012,04,17,05,00,6.20
2012,04,17,05,01,6.20
2012,04,17,05,02,6.20
2012,04,17,05,03,6.20
2012,04,17,05,04,6.30
2012,04,17,05,05,6.30
2012,04,17,05,06,6.40
2012,04,17,05,07,6.40
2012,04,17,05,08,6.40
2012,04,17,05,09,6.40
2012,04,17,05,10,6.40
2012,04,17,05,11,6.40
2012,04,17,05,12,6.50
2012,04,17,05,13,6.60
2012,04,17,05,14,6.60
2012,04,17,05,15,6.60
2012,04,17,05,16,6.60
2012,04,17,05,17,6.60
2012,04,17,05,18,6.60
2012,04,17,05,19,6.70
2012,04,17,05,20,6.70
2012,04,17,05,21,6.70
2012,04,17,05,22,6.70
2012,04,17,05,23,6.70
2012,04,17,05,24,6.70
2012,04,17,05,25,6.70
2012,04,17,05,26,6.80
2012,04,17,05,27,6.80
2012,04,17,05,28,6.80
2012,04,17,05,29,6.80
2012,04,17,05,30,6.80
2012,04,17,05,31,6.80
2012,04,17,05,32,6.80
2012,04,17,05,33,6.80
2012,04,17,05,34,6.80
2012,04,17,05,35,6.80
2012,04,17,05,36,6.80
2012,04,17,05,37,6.80
2012,04,17,05,38,6.80
2012,04,17,05,39,6.80
2012,04,17,05,40,6.80
2012,04,17,05,41,6.80
2012,04,17,05,42,6.80
2012,04,17,05,43,6.80
2012,04,17,05,44,6.80
2012,04,17,05,45,6.80
2012,04,17,05,46,6.80
2012,04,17,05,47,6.80
2012,04,17,05,48,6.80
2012,04,17,05,49,6.80
2012,04,17,05,50,6.80
2012,04,17,05,51,6.80
2012,04,17,05,52,6.80
2012,04,17,05,53,6.80
2012,04,17,05,54,6.80
2012,04,17,05,55,6.80
2012,04,17,05,56,6.80
2012,04,17,05,57,6.80
2012,04,17,05,58,6.80
2012,04,17,05,59,6.80
2012,04,17,06,00,6.80
2012,04,17,06,01,6.80
2012,04,17,06,02,6.80
2012,04,17,06,03,6.80
2012,04,17,06,04,6.80
2012,04,17,06,05,6.80
2012,04,17,06,06,6.80
2012,04,17,06,07,6.80
2012,04,17,06,08,6.80
2012,04,17,06,09,6.80
2012,04,17,06,10,6.80
2012,04,17,06,11,6.80
2012,04,17,06,12,6.80
2012,04,17,06,13,6.80
2012,04,17,06,14,6.80
2012,04,17,06,15,6.80
2012,04,17,06,16,6.80
2012,04,17,06,17,6.80
2012,04,17,06,18,6.80
2012,04,17,06,19,6.80
2012,04,17,06,20,6.80
2012,04,17,06,21,6.80
2012,04,17,06,22,6.80
2012,04,17,06,23,6.80
2012,04,17,06,24,6.80
2012,04,17,06,25,6.80
2012,04,17,06,26,6.80
2012,04,17,06,27,6.80
2012,04,17,06,28,6.80
2012,04,17,06,29,6.80
2012,04,17,06,30,6.80
2012,04,17,06,31,6.80
2012,04,17,06,32,6.80
2012,04,17,06,33,6.80
2012,04,17,06,34,6.80
2012,04,17,06,35,6.80
2012,04,17,06,36,6.80
2012,04,17,06,37,6.80
2012,04,17,06,38,6.80
2012,04,17,06,39,6.80
2012,04,17,06,40,6.80
2012,04,17,06,41,6.80
2012,04,17,06,42,6.80
2012,04,17,06,43,6.80
2012,04,17,06,44,6.80
2012,04,17,06,45,6.80
2012,04,17,06,46,6.80
2012,04,17,06,47,6.80
2012,04,17,06,48,6.80
2012,04,17,06,49,6.80
2012,04,17,06,50,6.80
2012,04,17,06,51,6.80
2012,04,17,06,52,6.80
2012,04,17,06,53,6.80
2012,04,17,06,54,6.80
2012,04,17,06,55,6.80
2012,04,17,06,56,6.80
2012,04,17,06,57,6.80
2012,04,17,06,58,6.80
2012,04,17,06,59,6.80
2012,04,17,07,00,6.80
2012,04,17,07,01,6.80
2012,04,17,07,02,6.80
2012,04,17,07,03,6.80
2012,04,17,07,04,6.80
2012,04,17,07,05,6.80
2012,04,17,07,06,6.80
2012,04,17,07,07,6.80
2012,04,17,07,08,6.80
2012,04,17,07,09,6.80
2012,04,17,07,10,6.80
2012,04,17,07,11,6.80
2012,04,17,07,12,6.80
2012,04,17,07,13,6.80
2012,04,17,07,14,6.80
2012,04,17,07,15,6.80
2012,04,17,07,16,6.80
2012,04,17,07,17,6.80
2012,04,17,07,18,6.80
2012,04,17,07,19,6.80
2012,04,17,07,20,6.80
2012,04,17,07,21,6.80
2012,04,17,07,22,6.80
2012,04,17,07,23,6.80
2012,04,17,07,24,6.80
2012,04,17,07,25,6.80
2012,04,17,07,26,6.80
2012,04,17,07,27,6.80
2012,04,17,07,28,6.80
2012,04,17,07,29,6.80
2012,04,17,07,30,6.80
2012,04,17,07,31,6.80
2012,04,17,07,32,6.80
2012,04,17,07,33,6.80
2012,04,17,07,34,6.80
2012,04,17,07,35,6.80
2012,04,17,07,36,6.80
2012,04,17,07,37,6.80
2012,04,17,07,38,6.80
2012,04,17,07,39,6.80
2012,04,17,07,40,6.80
2012,04,17,07,41,6.80
2012,04,17,07,42,6.80
2012,04,17,07,43,6.80
2012,04,17,07,44,6.80
2012,04,17,07,45,6.80
2012,04,17,07,46,6.80
2012,04,17,07,47,6.80
2012,04,17,07,48,6.80
2012,04,17,07,49,6.90
2012,04,17,07,50,6.90
2012,04,17,07,51,6.90
2012,04,17,07,52,6.90
2012,04,17,07,53,6.90
2012,04,17,07,54,6.90
2012,04,17,07,55,6.90
2012,04,17,07,56,6.90
2012,04,17,07,57,6.90
2012,04,17,07,58,6.90
2012,04,17,07,59,7.00
2012,04,17,08,00,7.00
2012,04,17,08,01,7.00
2012,04,17,08,02,7.00
2012,04,17,08,03,7.00
2012,04,17,08,04,7.00
2012,04,17,08,05,7.00
2012,04,17,08,06,7.00
2012,04,17,08,07,7.00
2012,04,17,08,08,7.00
2012,04,17,08,09,7.00
2012,04,17,08,10,7.00
2012,04,17,08,11,7.00
2012,04,17,08,12,7.00
2012,04,17,08,13,7.10
2012,04,17,08,14,7.10
2012,04,17,08,15,7.10
2012,04,17,08,16,7.10
2012,04,17,08,17,7.10
2012,04,17,08,18,7.10
2012,04,17,08,19,7.20
2012,04,17,08,20,7.20
2012,04,17,08,21,7.30
2012,04,17,08,22,7.30
2012,04,17,08,23,7.40
2012,04,17,08,24,7.50
2012,04,17,08,25,7.50
2012,04,17,08,26,7.50
2012,04,17,08,27,7.50
2012,04,17,08,28,7.60
2012,04,17,08,29,7.60
2012,04,17,08,30,7.60
2012,04,17,08,31,7.60
2012,04,17,08,32,7.70
2012,04,17,08,33,7.70
2012,04,17,08,34,7.70
2012,04,17,08,35,7.70
2012,04,17,08,36,7.70
2012,04,17,08,37,7.60
2012,04,17,08,38,7.50
2012,04,17,08,39,7.50
2012,04,17,08,40,7.40
2012,04,17,08,41,7.50
2012,04,17,08,42,7.50
2012,04,17,08,43,7.60
2012,04,17,08,44,7.60
2012,04,17,08,45,7.50
2012,04,17,08,46,7.50
2012,04,17,08,47,7.50
2012,04,17,08,48,7.60
2012,04,17,08,49,7.60
2012,04,17,08,50,7.60
2012,04,17,08,51,7.60
2012,04,17,08,52,7.50
2012,04,17,08,53,7.50
2012,04,17,08,54,7.50
2012,04,17,08,55,7.50
2012,04,17,08,56,7.40
2012,04,17,08,57,7.40
2012,04,17,08,58,7.50
2012,04,17,08,59,7.50
2012,04,17,09,00,7.60
2012,04,17,09,01,7.60
2012,04,17,09,02,7.60
2012,04,17,09,03,7.70
2012,04,17,09,04,7.70
2012,04,17,09,05,7.70
2012,04,17,09,06,7.70
2012,04,17,09,07,7.60
2012,04,17,09,08,7.60
2012,04,17,09,09,7.50
2012,04,17,09,10,7.40
2012,04,17,09,11,7.30
2012,04,17,09,12,7.30
2012,04,17,09,13,7.30
2012,04,17,09,14,7.30
2012,04,17,09,15,7.30
2012,04,17,09,16,7.30
2012,04,17,09,17,7.30
2012,04,17,09,18,7.30
2012,04,17,09,19,7.30
2012,04,17,09,20,7.30
2012,04,17,09,21,7.30
2012,04,17,09,22,7.30
2012,04,17,09,23,7.30
2012,04,17,09,24,7.30
2012,04,17,09,25,7.40
2012,04,17,09,26,7.40
2012,04,17,09,27,7.50
2012,04,17,09,28,7.50
2012,04,17,09,29,7.50
2012,04,17,09,30,7.60
2012,04,17,09,31,7.60
2012,04,17,09,32,7.60
2012,04,17,09,33,7.60
2012,04,17,09,34,7.60
2012,04,17,09,35,7.60
2012,04,17,09,36,7.50
2012,04,17,09,37,7.50
2012,04,17,09,38,7.60
2012,04,17,09,39,7.60
2012,04,17,09,40,7.50
2012,04,17,09,41,7.50
2012,04,17,09,42,7.40
2012,04,17,09,43,7.40
2012,04,17,09,44,7.40
2012,04,17,09,45,7.50
2012,04,17,09,46,7.50
2012,04,17,09,47,7.50
2012,04,17,09,48,7.50
2012,04,17,09,49,7.60
2012,04,17,09,50,7.60
2012,04,17,09,51,7.60
2012,04,17,09,52,7.60
2012,04,17,09,53,7.60
2012,04,17,09,54,7.60
2012,04,17,09,55,7.60
2012,04,17,09,56,7.60
2012,04,17,09,57,7.60
2012,04,17,09,58,7.60
2012,04,17,09,59,7.50
2012,04,17,10,00,7.50
2012,04,17,10,01,7.50
2012,04,17,10,02,7.50
2012,04,17,10,03,7.50
2012,04,17,10,04,7.40
2012,04,17,10,05,7.40
2012,04,17,10,06,7.40
2012,04,17,10,07,7.40
2012,04,17,10,08,7.50
2012,04,17,10,09,7.50
2012,04,17,10,10,7.60
2012,04,17,10,11,7.60
2012,04,17,10,12,7.60
2012,04,17,10,13,7.60
2012,04,17,10,14,7.60
2012,04,17,10,15,7.60
2012,04,17,10,16,7.60
2012,04,17,10,17,7.60
2012,04,17,10,18,7.60
2012,04,17,10,19,7.50
2012,04,17,10,20,7.50
2012,04,17,10,21,7.50
2012,04,17,10,22,7.40
2012,04,17,10,23,7.40
2012,04,17,10,24,7.40
2012,04,17,10,25,7.40
2012,04,17,10,26,7.40
2012,04,17,10,27,7.40
2012,04,17,10,28,7.50
2012,04,17,10,29,7.50
2012,04,17,10,30,7.50
2012,04,17,10,31,7.60
2012,04,17,10,32,7.50
2012,04,17,10,33,7.50
2012,04,17,10,34,7.50
2012,04,17,10,35,7.50
2012,04,17,10,36,7.60
2012,04,17,10,37,7.60
2012,04,17,10,38,7.60
2012,04,17,10,39,7.50
2012,04,17,10,40,7.50
2012,04,17,10,41,7.60
2012,04,17,10,42,7.60
2012,04,17,10,43,7.60
2012,04,17,10,44,7.60
2012,04,17,10,45,7.60
2012,04,17,10,46,7.60
2012,04,17,10,47,7.60
2012,04,17,10,48,7.70
2012,04,17,10,49,7.60
2012,04,17,10,50,7.70
2012,04,17,10,51,7.70
2012,04,17,10,52,7.70
2012,04,17,10,53,7.70
2012,04,17,10,54,7.70
2012,04,17,10,55,7.80
2012,04,17,10,56,7.80
2012,04,17,10,57,7.80
2012,04,17,10,58,7.80
2012,04,17,10,59,7.80
2012,04,17,11,00,7.80
2012,04,17,11,01,7.80
2012,04,17,11,02,7.80
2012,04,17,11,03,7.80
2012,04,17,11,04,7.80
2012,04,17,11,05,7.80
2012,04,17,11,06,7.80
2012,04,17,11,07,7.80
2012,04,17,11,08,7.80
2012,04,17,11,09,7.80
2012,04,17,11,10,7.80
2012,04,17,11,11,7.80
2012,04,17,11,12,7.80
2012,04,17,11,13,7.80
2012,04,17,11,14,7.80
2012,04,17,11,15,7.80
2012,04,17,11,16,7.70
2012,04,17,11,17,7.70
2012,04,17,11,18,7.60
2012,04,17,11,19,7.60
2012,04,17,11,20,7.60
2012,04,17,11,21,7.60
2012,04,17,11,22,7.60
2012,04,17,11,23,7.60
2012,04,17,11,24,7.60
2012,04,17,11,25,7.60
2012,04,17,11,26,7.50
2012,04,17,11,27,7.60
2012,04,17,11,28,7.60
2012,04,17,11,29,7.60
2012,04,17,11,30,7.50
2012,04,17,11,31,7.50
2012,04,17,11,32,7.50
2012,04,17,11,33,7.50
2012,04,17,11,34,7.50
2012,04,17,11,35,7.50
2012,04,17,11,36,7.50
2012,04,17,11,37,7.60
2012,04,17,11,38,7.60
2012,04,17,11,39,7.60
2012,04,17,11,40,7.70
2012,04,17,11,41,7.70
2012,04,17,11,42,7.70
2012,04,17,11,43,7.70
2012,04,17,11,44,7.70
2012,04,17,11,45,7.70
2012,04,17,11,46,7.70
2012,04,17,11,47,7.70
2012,04,17,11,48,7.70
2012,04,17,11,49,7.60
2012,04,17,11,50,7.60
2012,04,17,11,51,7.60
2012,04,17,11,52,7.60
2012,04,17,11,53,7.60
2012,04,17,11,54,7.60
2012,04,17,11,55,7.60
2012,04,17,11,56,7.70
2012,04,17,11,57,7.70
2012,04,17,11,58,7.70
2012,04,17,11,59,7.70
2012,04,17,12,00,7.80
2012,04,17,12,01,7.80
2012,04,17,12,02,7.80
2012,04,17,12,03,7.80
2012,04,17,12,04,7.80
2012,04,17,12,05,7.90
2012,04,17,12,06,7.90
2012,04,17,12,07,7.90
2012,04,17,12,08,7.90
2012,04,17,12,09,7.90
2012,04,17,12,10,7.90
2012,04,17,12,11,7.90
2012,04,17,12,12,7.90
2012,04,17,12,13,7.80
2012,04,17,12,14,7.80
2012,04,17,12,15,7.80
2012,04,17,12,16,7.80
2012,04,17,12,17,7.80
2012,04,17,12,18,7.80
2012,04,17,12,19,7.80
2012,04,17,12,20,7.80
2012,04,17,12,21,7.80
2012,04,17,12,22,7.80
2012,04,17,12,23,7.80
2012,04,17,12,24,7.80
2012,04,17,12,25,7.90
2012,04,17,12,26,7.90
2012,04,17,12,27,8.00
2012,04,17,12,28,8.00
2012,04,17,12,29,8.00
2012,04,17,12,30,8.10
2012,04,17,12,31,8.20
2012,04,17,12,32,8.20
2012,04,17,12,33,8.20
2012,04,17,12,34,8.20
2012,04,17,12,35,8.20
2012,04,17,12,36,8.20
2012,04,17,12,37,8.20
2012,04,17,12,38,8.20
2012,04,17,12,39,8.20
2012,04,17,12,40,8.20
2012,04,17,12,41,8.20
2012,04,17,12,42,8.20
2012,04,17,12,43,8.20
2012,04,17,12,44,8.20
2012,04,17,12,45,8.20
2012,04,17,12,46,8.20
2012,04,17,12,47,8.20
2012,04,17,12,48,8.10
2012,04,17,12,49,8.10
2012,04,17,12,50,8.10
2012,04,17,12,51,8.10
2012,04,17,12,52,8.10
2012,04,17,12,53,8.10
2012,04,17,12,54,8.10
2012,04,17,12,55,8.20
2012,04,17,12,56,8.20
2012,04,17,12,57,8.20
2012,04,17,12,58,8.20
2012,04,17,12,59,8.20
2012,04,17,13,00,8.10
2012,04,17,13,01,8.10
2012,04,17,13,02,8.10
2012,04,17,13,03,8.10
2012,04,17,13,04,8.10
2012,04,17,13,05,8.10
2012,04,17,13,06,8.20
2012,04,17,13,07,8.10
2012,04,17,13,08,8.10
2012,04,17,13,09,8.10
2012,04,17,13,10,8.10
2012,04,17,13,11,8.10
2012,04,17,13,12,8.20
2012,04,17,13,13,8.20
2012,04,17,13,14,8.30
2012,04,17,13,15,8.30
2012,04,17,13,16,8.30
2012,04,17,13,17,8.30
2012,04,17,13,18,8.30
2012,04,17,13,19,8.30
2012,04,17,13,20,8.30
2012,04,17,13,21,8.40
2012,04,17,13,22,8.40
2012,04,17,13,23,8.40
2012,04,17,13,24,8.30
2012,04,17,13,25,8.30
2012,04,17,13,26,8.30
2012,04,17,13,27,8.30
2012,04,17,13,28,8.30
2012,04,17,13,29,8.30
2012,04,17,13,30,8.30
2012,04,17,13,31,8.30
2012,04,17,13,32,8.30
2012,04,17,13,33,8.40
2012,04,17,13,34,8.40
2012,04,17,13,35,8.40
2012,04,17,13,36,8.30
2012,04,17,13,37,8.30
2012,04,17,13,38,8.30
2012,04,17,13,39,8.30
2012,04,17,13,40,8.30
2012,04,17,13,41,8.20
2012,04,17,13,42,8.30
2012,04,17,13,43,8.30
2012,04,17,13,44,8.30
2012,04,17,13,45,8.30
2012,04,17,13,46,8.30
2012,04,17,13,47,8.30
2012,04,17,13,48,8.30
2012,04,17,13,49,8.30
2012,04,17,13,50,8.30
2012,04,17,13,51,8.30
2012,04,17,13,52,8.20
2012,04,17,13,53,8.20
2012,04,17,13,54,8.20
2012,04,17,13,55,8.20
2012,04,17,13,56,8.20
2012,04,17,13,57,8.10
2012,04,17,13,58,8.10
2012,04,17,13,59,8.00
2012,04,17,14,00,8.00
2012,04,17,14,01,7.90
2012,04,17,14,02,7.90
2012,04,17,14,03,7.90
2012,04,17,14,04,7.90
2012,04,17,14,05,7.90
2012,04,17,14,06,7.90
2012,04,17,14,07,7.90
2012,04,17,14,08,7.90
2012,04,17,14,09,8.00
2012,04,17,14,10,7.90
2012,04,17,14,11,7.90
2012,04,17,14,12,7.90
2012,04,17,14,13,7.90
2012,04,17,14,14,7.90
2012,04,17,14,15,8.00
2012,04,17,14,16,8.00
2012,04,17,14,17,8.10
2012,04,17,14,18,8.10
2012,04,17,14,19,8.10
2012,04,17,14,20,8.00
2012,04,17,14,21,8.00
2012,04,17,14,22,8.00
2012,04,17,14,23,8.00
2012,04,17,14,24,8.00
2012,04,17,14,25,8.10
2012,04,17,14,26,8.10
2012,04,17,14,27,8.10
2012,04,17,14,28,8.10
2012,04,17,14,29,8.10
2012,04,17,14,30,8.20
2012,04,17,14,31,8.20
2012,04,17,14,32,8.20
2012,04,17,14,33,8.20
2012,04,17,14,34,8.20
2012,04,17,14,35,8.20
2012,04,17,14,36,8.20
2012,04,17,14,37,8.20
2012,04,17,14,38,8.20
2012,04,17,14,39,8.20
2012,04,17,14,40,8.20
2012,04,17,14,41,8.30
2012,04,17,14,42,8.30
2012,04,17,14,43,8.30
2012,04,17,14,44,8.30
2012,04,17,14,45,8.40
2012,04,17,14,46,8.40
2012,04,17,14,47,8.40
2012,04,17,14,48,8.50
2012,04,17,14,49,8.40
2012,04,17,14,50,8.40
2012,04,17,14,51,8.40
2012,04,17,14,52,8.40
2012,04,17,14,53,8.30
2012,04,17,14,54,8.30
2012,04,17,14,55,8.30
2012,04,17,14,56,8.30
2012,04,17,14,57,8.40
2012,04,17,14,58,8.40
2012,04,17,14,59,8.40
2012,04,17,15,00,8.40
2012,04,17,15,01,8.50
2012,04,17,15,02,8.50
2012,04,17,15,03,8.50
2012,04,17,15,04,8.60
2012,04,17,15,05,8.60
2012,04,17,15,06,8.60
2012,04,17,15,07,8.60
2012,04,17,15,08,8.60
2012,04,17,15,09,8.60
2012,04,17,15,10,8.50
2012,04,17,15,11,8.50
2012,04,17,15,12,8.50
2012,04,17,15,13,8.50
2012,04,17,15,14,8.50
2012,04,17,15,15,8.50
2012,04,17,15,16,8.50
2012,04,17,15,17,8.50
2012,04,17,15,18,8.40
2012,04,17,15,19,8.40
2012,04,17,15,20,8.40
2012,04,17,15,21,8.40
2012,04,17,15,22,8.40
2012,04,17,15,23,8.30
2012,04,17,15,24,8.30
2012,04,17,15,25,8.30
2012,04,17,15,26,8.30
2012,04,17,15,27,8.30
2012,04,17,15,28,8.20
2012,04,17,15,29,8.20
2012,04,17,15,30,8.20
2012,04,17,15,31,8.20
2012,04,17,15,32,8.20
2012,04,17,15,33,8.20
2012,04,17,15,34,8.20
2012,04,17,15,35,8.10
2012,04,17,15,36,8.10
2012,04,17,15,37,8.10
2012,04,17,15,38,8.20
2012,04,17,15,39,8.20
2012,04,17,15,40,8.20
2012,04,17,15,41,8.10
2012,04,17,15,42,8.10
2012,04,17,15,43,8.10
2012,04,17,15,44,8.10
2012,04,17,15,45,8.10
2012,04,17,15,46,8.10
2012,04,17,15,47,8.10
2012,04,17,15,48,8.10
2012,04,17,15,49,8.10
2012,04,17,15,50,8.10
2012,04,17,15,51,8.20
2012,04,17,15,52,8.20
2012,04,17,15,53,8.10
2012,04,17,15,54,8.10
2012,04,17,15,55,8.10
2012,04,17,15,56,8.10
2012,04,17,15,57,8.00
2012,04,17,15,58,8.00
2012,04,17,15,59,8.00
2012,04,17,16,00,8.00
2012,04,17,16,01,8.10
2012,04,17,16,02,8.10
2012,04,17,16,03,8.10
2012,04,17,16,04,8.10
2012,04,17,16,05,8.10
2012,04,17,16,06,8.10
2012,04,17,16,07,8.10
2012,04,17,16,08,8.10
2012,04,17,16,09,8.10
2012,04,17,16,10,8.10
2012,04,17,16,11,8.10
2012,04,17,16,12,8.10
2012,04,17,16,13,8.10
2012,04,17,16,14,8.10
2012,04,17,16,15,8.00
2012,04,17,16,16,8.00
2012,04,17,16,17,8.00
2012,04,17,16,18,8.00
2012,04,17,16,19,7.90
2012,04,17,16,20,7.90
2012,04,17,16,21,7.90
2012,04,17,16,22,7.80
2012,04,17,16,23,7.80
2012,04,17,16,24,7.80
2012,04,17,16,25,7.80
2012,04,17,16,26,7.80
2012,04,17,16,27,7.80
2012,04,17,16,28,7.90
2012,04,17,16,29,7.90
2012,04,17,16,30,7.90
2012,04,17,16,31,7.90
2012,04,17,16,32,7.90
2012,04,17,16,33,7.90
2012,04,17,16,34,7.90
2012,04,17,16,35,7.90
2012,04,17,16,36,7.90
2012,04,17,16,37,7.90
2012,04,17,16,38,7.90
2012,04,17,16,39,7.90
2012,04,17,16,40,7.90
2012,04,17,16,41,7.90
2012,04,17,16,42,7.90
2012,04,17,16,43,7.90
2012,04,17,16,44,7.90
2012,04,17,16,45,7.90
2012,04,17,16,46,7.90
2012,04,17,16,47,7.90
2012,04,17,16,48,7.90
2012,04,17,16,49,7.80
2012,04,17,16,50,7.80
2012,04,17,16,51,7.80
2012,04,17,16,52,7.80
2012,04,17,16,53,7.80
2012,04,17,16,54,7.80
2012,04,17,16,55,7.80
2012,04,17,16,56,7.80
2012,04,17,16,57,7.90
2012,04,17,16,58,7.90
2012,04,17,16,59,7.90
2012,04,17,17,00,7.90
2012,04,17,17,01,7.90
2012,04,17,17,02,7.90
2012,04,17,17,03,7.90
2012,04,17,17,04,7.90
2012,04,17,17,05,8.00
2012,04,17,17,06,8.00
2012,04,17,17,07,8.00
2012,04,17,17,08,8.00
2012,04,17,17,09,8.10
2012,04,17,17,10,8.10
2012,04,17,17,11,8.10
2012,04,17,17,12,8.10
2012,04,17,17,13,8.10
2012,04,17,17,14,8.00
2012,04,17,17,15,8.00
2012,04,17,17,16,8.00
2012,04,17,17,17,8.10
2012,04,17,17,18,8.00
2012,04,17,17,19,8.00
2012,04,17,17,20,8.00
2012,04,17,17,21,8.00
2012,04,17,17,22,8.00
2012,04,17,17,23,8.00
2012,04,17,17,24,8.00
2012,04,17,17,25,8.00
2012,04,17,17,26,8.00
2012,04,17,17,27,8.00
2012,04,17,17,28,8.00
2012,04,17,17,29,8.00
2012,04,17,17,30,8.00
2012,04,17,17,31,8.00
2012,04,17,17,32,8.10
2012,04,17,17,33,8.10
2012,04,17,17,34,8.10
2012,04,17,17,35,8.10
2012,04,17,17,36,8.10
2012,04,17,17,37,8.10
2012,04,17,17,38,8.10
2012,04,17,17,39,8.20
2012,04,17,17,40,8.20
2012,04,17,17,41,8.20
2012,04,17,17,42,8.20
2012,04,17,17,43,8.20
2012,04,17,17,44,8.20
2012,04,17,17,45,8.20
2012,04,17,17,46,8.20
2012,04,17,17,47,8.20
2012,04,17,17,48,8.20
2012,04,17,17,49,8.20
2012,04,17,17,50,8.20
2012,04,17,17,51,8.20
2012,04,17,17,52,8.30
2012,04,17,17,53,8.30
2012,04,17,17,54,8.30
2012,04,17,17,55,8.30
2012,04,17,17,56,8.40
2012,04,17,17,57,8.40
2012,04,17,17,58,8.40
2012,04,17,17,59,8.40
2012,04,17,18,00,8.40
2012,04,17,18,01,8.40
2012,04,17,18,02,8.30
2012,04,17,18,03,8.30
2012,04,17,18,04,8.30
2012,04,17,18,05,8.30
2012,04,17,18,06,8.30